{"data":{"norad_id":28810,"intl_designator":"2005-031B","name":"REIMEI (INDEX)","alt_names":[],"object_type":"PAYLOAD","status":"ACTIVE","operator":null,"country":"JPN","launch_date":"2005-08-23","launch_site_code":"TYMSC","launch_vehicle":null,"mission":null,"orbit_class":"UNKNOWN","rcs_meters":0.5743,"size_class":null,"mass_kg":null,"dimensions":null,"purposes":[],"wikipedia_slug":null,"has_3d_model":false,"image_url":null,"decayed_at":null,"tle_current":{"epoch":"2026-09-19T14:34:17.292576Z","epoch_age_seconds":91570,"freshness":"FRESH","line1":"1 28810U 05031B   26262.60714459  .00003110  00000+0  18623-3 0  9999","line2":"2 28810  98.0253  31.1833 0019922 147.9013 212.3433 15.11674242145253","mean_motion":15.11674242,"eccentricity":0.0019922,"inclination_deg":98.0253,"raan_deg":31.1833,"arg_perigee_deg":147.9013,"mean_anomaly_deg":212.3433,"bstar":0.00018623,"rev_number":14525,"period_min":95.258618556259,"perigee_km":517.32921374039,"apogee_km":544.8583528734,"semimajor_km":6909.2307833069,"source":"CELESTRAK","updated_at":"2026-09-20T09:00:13.633822Z"}}}